Retour au catalogue

OPS 9454

ActifMilitaireMEO
NORAD 10941·PAYLOAD·🇺🇸 United States

Lancé Jun 10, 1978 depuis Cape Canaveral Space Force Station

Loading…

Prochains Passages (prochaines 24 heures)

TLE

FraisSource: Mike McCants

Époque: Sep 15, 2026, 18:04 UTC

1 10941U 78058A   26258.75332926  .00000000  00000-0  00000-0 0    06
2 10941  10.6700  17.1086 1501201  67.3268 307.8434  1.00107171  4580

Suivez OPS 9454 en temps réel avec AllMySat

Download on the App Store